sat.trackr.live / text

‹ back to catalog

COSMOS 2617

NORAD 68828 · 2026-090C

PAYLOAD ACTIVE UNKNOWN

§ Identity

Operator
Country
CIS
Launch date
2026-04-23
Launch site
PLMSC
Launch vehicle
Mass (kg)
RCS (m²)

External: N2YO · Heavens-Above · Gunter

§ Orbital elements

Epoch: 2026-09-19T15:50:06.091008Z

Period
90.75 min
Inclination
96.6323°
Eccentricity
0.0014150
Mean motion
15.86821533 rev/d
Perigee alt
301.7 km
Apogee alt
320.7 km
Semi-major
6,689.3 km
B*
2.9722e-5
RAAN
177.6463°
Arg perigee
43.8210°
Mean anomaly
316.4183°
Rev number
2,363

§ Raw data

COSMOS 26171 68828U 26090C   26262.65979272  .00007037  18471-5  29722-4 0  99932 68828  96.6323 177.6463 0014150  43.8210 316.4183 15.86821533 23638

JSON: /api/v1/satellites/68828 · /tle

For live sub-satellite position, see the globe view (requires WebGL).

§ Visibility from observer

Set your observer location to see the next 7 days of passes ≥ 10°. The values pass through the URL so the page stays shareable.

No JS? Fill the form by hand. The geolocation button needs JavaScript.